OPS 4682 DEB, 51486

Orbit data source: Space-Track

OPS 4682 DEB, 51486 is space debris in LEO originally from a launch on Sat, 03 Apr 1965 UTC launched from the Air Force Western Test Range (AFWTR). Debris objects in space refer to the collection of defunct objects orbiting the Earth. Examples of debris include non-operational satellites, rocket bodies, and fragments generated from explosions, collisions, or faulty payload assembly.

Loading next visibility...
Identifier
51486, 1965-027FW
Orbit
LEO
Country
Flag of USUS
Related business
Manufacturer
Unknown
Mission
Spacecraft
Bus & Motor
Unknown
Mass
Unknown
Launch date (UTC)
1965-04-03 (61 years ago)
Launch vehicle
Unknown
Launch site
Air Force Western Test Range (AFWTR)
Object type
Payload
Rocket body
Debris
Shape & HBR
Unknown shape, 0.1 m
Radar Cross Section
Small (<0.1 m²)

Expand to show TLE details & history
Last TLE update: 6 days ago

TLE from 6 days ago
0 OPS 4682 DEB
1 51486U 65027FW  26258.07985754  .00000305  00000-0  10583-2 0  9999
2 51486  90.2485  10.6551 0027260 345.1001  14.9312 12.95099369532848
Epoch: 2026-09-15T01:54Z
TLE epoch observation values (Epoch: 2026-09-15T01:54:59.691Z)
Latitude
-0.00005°
Longitude
-12.14456°
Altitude
1,264.05 km
Speed
7.233 km/s
True Right ascension
00h 42m 37s
True Declination
0° 00' 00"
Sunlit
Object was in full shadow at epoch
Visualization orbit readout
Latitude
Unknown
Longitude
Unknown
Altitude
Unknown
Speed
Unknown
Apparent Right ascension
Unknown
Apparent Declination
Unknown
Sunlit
N/A
Visualization observer readout
Local Sidereal Time
18:56:14
Azimuth
Unknown
Elevation
Unknown
Doppler factor
Unknown
Orbital elements
Apogee altitude
1,299.354 km
Perigee altitude
1,257.61 km
Semi-major axis
7,656.619 km
Eccentricity
0.00273
Inclination
90.2485°
RAAN
10.6551°
Arg. of periapsis
345.1001°
True anomaly
15.01195°
Mean anomaly
14.9312°
Eccentric anomaly
14.97155°
Mean motion
3.23957 °/min
Orbital period
111.13 mins
BSTAR
0.0010583
Loading maneuver chart data...
Computing Atmospheric mass density...
Loading historical data...
Loading historical data...
Loading historical data...
Loading historical data...
Loading historical data...
Loading historical data...
Loading historical data...

Documentation

Showing up to 5 results
|